Weather History for KFQD - August, 2013

Change the Weather History Date:

Wednesday, August 7, 2013

  Actual Average (KAVL) Record (KAVL)
Temperature  
Mean Temperature 73 °F 74 °F  
Max Temperature 77 °F 84 °F 95 °F (1935)
Min Temperature 69 °F 64 °F 50 °F (2004)
Degree Days  
Heating Degree Days 0 0  
Month to date heating degree days 0  
Since 1 June heating degree days 14  
Since 1 July heating degree days 0  
Cooling Degree Days 8 9  
Month to date cooling degree days 63  
Year to date cooling degree days 573  
Since 1 June cooling degree days 515  
Growing Degree Days 23 (Base 50)    
Moisture  
Dew Point 71 °F    
Average Humidity 95    
Maximum Humidity 100    
Minimum Humidity 80    
Precipitation  
Precipitation 0.09 in 0.14 in 2.27 in (1978)
Month to date precipitation 0.99  
Year to date precipitation 28.20  
Snow  
Snow 0.00 in 0.00 in 0.00 in ()
Month to date snowfall 0.0  
Since 1 June snowfall 0.0  
Since 1 July snowfall 0.0  
Snow Depth -    
Sea Level Pressure  
Sea Level Pressure 30.09 in    
Wind  
Wind Speed 4 mph (SSE)    
Max Wind Speed 12 mph    
Max Gust Speed 16 mph    
Visibility 6 miles    
Events Rain    
T = Trace of Precipitation, MM = Missing Value Source: NWS Daily Summary

Daily Weather History Graph

Daily Weather History Graph

Search for Another Location

Airport or City:

Trip Planner

Search our weather history database for the weather conditions in past years. The results will help you decide how hot, cold, wet, or windy it might be!

Date:

Astronomy

Aug. 07, 2013 Rise Set
Actual Time 6:41 AM EDT 8:25 PM EDT
Civil Twilight 6:13 AM EDT 8:52 PM EDT
Nautical Twilight 5:40 AM EDT 9:25 PM EDT
Astronomical Twilight 5:05 AM EDT 10:01 PM EDT
Moon 7:24 AM EDT (8/7) 8:37 PM EDT (8/7)
Length of Visible Light 14h 39m
Length of Day
13h 44m
New Moon, 1% of the Moon is Illuminated
Aug 7
New Moon
Aug 14
First Quarter
Aug 20
Full
Aug 28
Last Quarter
Sep 5
New

Hourly Weather History & Observations

Time (EDT) Temp. Dew Point Humidity Pressure Visibility Wind Dir Wind Speed Gust Speed Precip Events Conditions
12:14 AM 69.8 °F 69.8 °F 100% 30.09 in 7.0 mi South 6.9 mph - N/A   Overcast
12:34 AM 71.6 °F 69.8 °F 94% 30.09 in 7.0 mi Calm Calm - N/A   Overcast
12:54 AM 71.6 °F 69.8 °F 94% 30.09 in 7.0 mi NNE 3.5 mph - N/A   Overcast
1:34 AM 71.6 °F 69.8 °F 94% 30.08 in 7.0 mi Calm Calm - N/A   Overcast
1:57 AM 69.8 °F 69.8 °F 100% 30.08 in 4.0 mi Calm Calm - N/A   Overcast
2:14 AM 69.8 °F 69.8 °F 100% 30.07 in 5.0 mi ESE 3.5 mph - N/A   Overcast
2:37 AM 69.8 °F 69.8 °F 100% 30.07 in 5.0 mi SE 3.5 mph - N/A   Overcast
2:54 AM 69.8 °F 69.8 °F 100% 30.07 in 4.0 mi SE 3.5 mph - N/A   Overcast
3:14 AM 69.8 °F 69.8 °F 100% 30.07 in 2.0 mi ESE 4.6 mph - N/A   Overcast
3:34 AM 69.8 °F 69.8 °F 100% 30.06 in 2.0 mi SE 3.5 mph - N/A   Overcast
3:54 AM 69.8 °F 69.8 °F 100% 30.06 in 1.8 mi SE 3.5 mph - N/A   Overcast
4:54 AM 69.8 °F 69.8 °F 100% 30.06 in 1.8 mi South 10.4 mph - N/A   Light Drizzle
5:14 AM 69.8 °F 69.8 °F 100% 30.07 in 2.0 mi SE 5.8 mph - N/A   Overcast
5:34 AM 69.8 °F 69.8 °F 100% 30.07 in 2.5 mi SSE 8.1 mph - N/A   Overcast
5:54 AM 69.8 °F 69.8 °F 100% 30.08 in 2.0 mi SE 4.6 mph - N/A   Overcast
6:14 AM 69.8 °F 69.8 °F 100% 30.09 in 2.5 mi SE 4.6 mph - 0.01 in   Drizzle
6:34 AM 69.8 °F 69.8 °F 100% 30.08 in 2.5 mi SE 6.9 mph - 0.01 in Rain Rain
6:54 AM 69.8 °F 69.8 °F 100% 30.09 in 2.0 mi SE 6.9 mph - 0.01 in   Overcast
7:14 AM 69.8 °F 69.8 °F 100% 30.09 in 1.5 mi SSE 5.8 mph - N/A   Drizzle
7:15 AM 69.8 °F 69.4 °F 99% 30.09 in 1.5 mi SSE 5.8 mph - N/A   Drizzle
7:35 AM 69.8 °F 69.4 °F 99% 30.09 in 1.8 mi South 10.4 mph - 0.01 in   Drizzle
7:55 AM 69.8 °F 69.6 °F 99% 30.10 in 1.5 mi South 9.2 mph - 0.01 in   Overcast
8:15 AM 69.8 °F 69.8 °F 100% 30.10 in 1.5 mi South 6.9 mph - N/A   Overcast
8:35 AM 70.0 °F 69.8 °F 99% 30.11 in 2.0 mi SSE 4.6 mph - N/A   Overcast
8:55 AM 70.2 °F 69.8 °F 99% 30.11 in 2.0 mi South 5.8 mph - N/A   Overcast
9:15 AM 70.5 °F 70.0 °F 98% 30.11 in 2.5 mi SE 4.6 mph - N/A   Overcast
9:35 AM 70.7 °F 70.0 °F 98% 30.11 in 2.5 mi ESE 3.5 mph - N/A   Overcast
9:55 AM 70.9 °F 70.3 °F 98% 30.10 in 2.5 mi SSE 5.8 mph - N/A   Overcast
10:15 AM 71.2 °F 70.5 °F 98% 30.11 in 2.5 mi SSE 5.8 mph - N/A   Overcast
10:35 AM 71.6 °F 70.7 °F 97% 30.12 in 3.0 mi SSE 5.8 mph - N/A   Overcast
10:55 AM 71.6 °F 70.5 °F 96% 30.12 in 3.0 mi SSE 6.9 mph - N/A   Overcast
11:15 AM 71.6 °F 70.7 °F 97% 30.12 in 4.0 mi SSE 5.8 mph - N/A Rain Rain
11:35 AM 72.0 °F 70.7 °F 96% 30.13 in 5.0 mi South 6.9 mph - N/A   Overcast
11:55 AM 73.2 °F 71.6 °F 95% 30.13 in 5.0 mi South 5.8 mph - N/A Rain Light Rain
12:15 PM 73.9 °F 71.6 °F 92% 30.12 in 7.0 mi Calm Calm - N/A Rain Light Rain
12:35 PM 74.5 °F 72.1 °F 92% 30.12 in 7.0 mi Calm Calm - 0.01 in Rain Light Rain
12:55 PM 73.8 °F 71.4 °F 92% 30.12 in 7.0 mi SSW 11.5 mph - 0.02 in Rain Rain
1:15 PM 73.8 °F 71.4 °F 92% 30.12 in 7.0 mi SSW 8.1 mph - 0.01 in Rain Rain
1:35 PM 74.3 °F 71.8 °F 92% 30.12 in 7.0 mi SSW 10.4 mph 16.1 mph 0.02 in Rain Light Rain
1:55 PM 74.3 °F 71.4 °F 91% 30.11 in 10.0 mi SSW 8.1 mph 16.1 mph 0.02 in Rain Light Rain
2:15 PM 75.7 °F 71.8 °F 87% 30.11 in 10.0 mi SSW 6.9 mph - N/A   Mostly Cloudy
2:35 PM 75.6 °F 71.4 °F 87% 30.11 in 10.0 mi South 6.9 mph - N/A   Overcast
2:55 PM 75.2 °F 71.8 °F 89% 30.10 in 10.0 mi SSW 8.1 mph - N/A Rain Light Rain
3:15 PM 75.4 °F 71.6 °F 88% 30.09 in 10.0 mi South 4.6 mph - N/A   Light Drizzle
3:35 PM 76.6 °F 72.0 °F 85% 30.09 in 10.0 mi Calm Calm - N/A   Overcast
3:55 PM 77.0 °F 71.2 °F 82% 30.08 in 10.0 mi SSE 4.6 mph - N/A   Overcast
4:15 PM 77.2 °F 71.2 °F 82% 30.07 in 10.0 mi Calm Calm - N/A   Overcast
4:35 PM 77.5 °F 71.6 °F 82% 30.08 in 10.0 mi South 4.6 mph - N/A Rain Light Rain
4:55 PM 77.4 °F 72.0 °F 83% 30.08 in 10.0 mi SSW 3.5 mph - N/A   Overcast
5:15 PM 77.5 °F 70.9 °F 80% 30.07 in 10.0 mi South 4.6 mph - N/A   Overcast
5:56 PM 75.2 °F 71.6 °F 89% 30.07 in 10.0 mi Calm Calm - N/A   Overcast
6:15 PM 75.7 °F 71.8 °F 87% 30.07 in 10.0 mi West 3.5 mph - N/A Rain Light Rain
6:35 PM 74.5 °F 72.5 °F 94% 30.07 in 10.0 mi Calm Calm - N/A   Overcast
6:55 PM 74.5 °F 72.5 °F 94% 30.06 in 10.0 mi Calm Calm - N/A   Overcast
7:15 PM 74.5 °F 72.0 °F 92% 30.06 in 10.0 mi Calm Calm - N/A   Overcast
7:35 PM 74.1 °F 72.3 °F 94% 30.07 in 5.0 mi Calm Calm - 0.01 in Rain Light Rain
7:55 PM 73.6 °F 72.1 °F 95% 30.07 in 7.0 mi Calm Calm - 0.01 in Rain Light Rain
8:15 PM 73.4 °F 72.1 °F 96% 30.07 in 7.0 mi Calm Calm - N/A   Overcast
8:34 PM 73.4 °F 73.4 °F 100% 30.07 in 7.0 mi Calm Calm - N/A   Overcast
8:54 PM 73.4 °F 71.6 °F 94% 30.07 in 7.0 mi Calm Calm - N/A   Overcast
9:14 PM 73.4 °F 71.6 °F 94% 30.07 in 7.0 mi Calm Calm - N/A   Overcast
9:34 PM 73.4 °F 71.6 °F 94% 30.07 in 5.0 mi Calm Calm - N/A   Mostly Cloudy
9:54 PM 73.4 °F 71.6 °F 94% 30.08 in 7.0 mi Calm Calm - N/A   Scattered Clouds
10:14 PM 73.4 °F 71.6 °F 94% 30.09 in 7.0 mi Calm Calm - N/A   Overcast
10:36 PM 73.4 °F 71.6 °F 94% 30.09 in 3.0 mi South 3.5 mph - 0.01 in Rain Light Rain
10:54 PM 71.6 °F 71.6 °F 100% 30.09 in 10.0 mi South 8.1 mph - 0.02 in Rain Light Rain
11:14 PM 71.6 °F 71.6 °F 100% 30.09 in 10.0 mi Calm Calm - N/A   Overcast
11:34 PM 71.6 °F 71.6 °F 100% 30.09 in 10.0 mi Calm Calm - N/A   Overcast
11:54 PM 71.6 °F 71.6 °F 100% 30.09 in 10.0 mi Calm Calm - N/A   Overcast